Regional Weather Roundup
Issued by NWS

Home | Current Version | Previous Version | Graphics & Text | Print | Product List | Glossary On
Versions: 1 2 3 4 5 6 7 8 9 10 11 12 13 14 15 16 17 18 19 20 21 22 23 24 25 26 27 28 29 30 31 32 33 34 35 36 37 38 39 40 41 42 43 44 45 46 47 48 49 50
074
ASUS43 KLSX 140407
RWRMO

WEATHER SUMMARY FOR MISSOURI
NATIONAL WEATHER SERVICE SPRINGFIELD MO
1000 PM CST SAT FEB 13 2016

NOTE: "FAIR" INDICATES FEW OR NO CLOUDS BELOW 12,000 FEET WITH NO
       SIGNIFICANT WEATHER AND/OR OBSTRUCTIONS TO VISIBILITY.
       CURRENT SKY AND/OR WEATHER CONDITIONS ARE NOT AVAILABLE FOR
       CHILLICOTHE AND FARMINGTON.

MOZ001>031-035>038-043-044-053-054-140500-
...NORTHERN AND WESTERN MISSOURI...

CITY           SKY/WX    TMP DP  RH WIND       PRES   REMARKS
KANSAS CTY INT CLOUDY    21   4  47 SE13      30.24F WCI   9
KANSAS C DTWN  CLOUDY    23   3  42 E9        30.26F WCI  13
LEE`S SUMMIT   CLOUDY    22   4  46 E14       30.25F WCI   9
ST JOSEPH      CLOUDY    21   1  41 SE12      30.26F WCI   9
CHILLICOTHE      N/A     21   4  47 E8        30.33F WCI  11
KIRKSVILLE     CLOUDY    18   4  54 SE12      30.35F WCI   5

$$
MOZ066>068-077>081-088>096-101>105-140500-
...SOUTHWEST MISSOURI...

CITY           SKY/WX    TMP DP  RH WIND       PRES   REMARKS
SPRINGFIELD    CLOUDY    32   2  27 SE18      30.21R WCI  20
JOPLIN         CLOUDY    36   7  29 MISG      30.20R

$$
MOZ032>034-039>042-045>050-055>058-069>072-140500-
...CENTRAL MISSOURI...

CITY           SKY/WX    TMP DP  RH WIND       PRES   REMARKS
COLUMBIA       CLOUDY    22   3  44 E12       30.33F WCI  10
JEFFERSON CITY CLOUDY    24   4  42 E12       30.36F WCI  13
ROLLA          CLOUDY    22   3  44 E10       30.29F WCI  11
SEDALIA        CLOUDY    24   3  40 E15       30.30S WCI  11
WHITEMAN AFB   CLOUDY    23   3  42 E9        30.27F WCI  13
WARRENSBURG    CLOUDY    23   3  42 E8        30.29S WCI  14
OSAGE BEACH    CLOUDY    25   1  36 E7        30.30S WCI  17

$$
MOZ051-052-059>065-140500-
...EAST CENTRAL MISSOURI...

CITY           SKY/WX    TMP DP  RH WIND       PRES   REMARKS
ST LOUIS INTL  CLOUDY    23   5  46 SE13      30.42F WCI  11
SPIRIT OF STL  CLOUDY    23   5  46 SE7       30.41F WCI  15
ST CHARLES     CLOUDY    22   6  50 SE12      30.43F WCI  10

$$
MOZ072>076-082>087-097>100-106>115-140500-
...SOUTH CENTRAL AND SOUTHEAST MISSOURI...

CITY           SKY/WX    TMP DP  RH WIND       PRES   REMARKS
CAPE GIRARDEAU CLOUDY    25   6  44 E7        30.44F WCI  17
FARMINGTON     CLOUDY    22   5  48 SE9       30.38F WCI  12
POPLAR BLUFF   CLOUDY    27   6  41 E7        30.41F WCI  19
WEST PLAINS    CLOUDY    23   2  40 SE8       30.32F WCI  14

$$



USA.gov is the U.S. government's official web portal to all federal, state and local government web resources and services.